GEFSGL_500_meanwind_060.txt.gz
Wind_Speed
13 13 13 13 13 13 13 15 16 17 18 19 20 21 22 22 23 23 24 24 25 25 26 27 27 28 28 27 28 28 28 28 29 30 31 32 32 33 34 36 38 40 42
15 16 16 16 16 16 16 17 19 20 21 22 23 24 24 25 25 26 26 27 27 28 29 29 30 30 30 30 30 29 29 29 29 30 32 33 34 34 34 35 37 39 41
17 18 18 19 19 19 19 21 22 23 24 25 26 26 27 27 28 28 29 29 30 30 30 31 32 32 32 32 32 31 31 31 31 31 32 34 35 36 36 36 36 38 40
19 19 20 21 21 22 23 24 25 26 27 28 29 29 30 30 31 31 31 31 31 32 33 33 34 33 34 34 33 33 33 33 33 33 34 35 36 37 38 37 37 38 39
20 21 22 23 23 24 25 27 28 29 29 31 32 32 33 33 33 33 34 34 34 35 36 36 35 35 36 35 35 35 35 35 35 35 35 36 37 38 38 38 38 38 39
21 23 24 25 26 27 28 29 30 31 32 33 34 35 35 35 36 36 36 36 37 37 38 38 38 38 38 37 37 37 37 37 37 37 37 37 37 39 39 38 38 38 38
25 26 27 28 29 30 31 32 33 34 35 36 36 37 37 38 39 39 39 39 39 39 40 40 40 39 39 39 39 39 39 39 39 39 38 38 39 39 39 38 38 38 38
28 28 29 31 32 34 34 35 36 37 38 38 39 40 41 40 42 43 43 42 42 42 42 42 42 41 42 42 41 41 41 41 41 40 39 39 39 40 39 39 39 38 38
31 31 32 34 35 37 38 39 40 41 41 42 43 44 44 44 45 46 47 46 45 45 45 44 44 44 44 44 43 42 42 43 43 41 40 39 40 40 40 39 39 39 38
34 35 35 37 38 40 41 43 44 44 45 46 47 48 49 48 48 49 49 49 48 48 47 47 47 47 46 47 46 44 43 44 44 42 41 40 40 40 40 40 39 39 38
36 37 38 40 41 43 45 46 47 49 50 50 51 52 52 52 52 52 52 53 52 52 51 50 50 50 49 49 48 47 45 45 44 43 41 41 40 40 40 40 39 39 38
39 41 42 43 45 46 48 49 50 52 53 53 54 54 55 55 56 56 56 56 56 56 54 53 53 53 52 51 50 49 48 46 44 42 41 40 40 40 41 40 39 39 38
41 43 44 45 47 48 50 51 53 54 55 56 57 58 58 58 59 59 59 59 60 60 58 57 57 56 55 53 52 51 49 47 45 42 41 40 41 41 41 40 40 39 39
43 45 46 47 49 51 53 54 56 57 59 60 61 62 62 62 62 63 63 63 63 63 62 61 60 59 57 55 53 51 49 47 45 43 41 41 41 40 40 39 39 39 39
46 47 49 50 52 54 55 57 59 61 63 64 65 66 66 66 66 66 66 66 66 66 65 64 61 60 58 55 53 51 50 47 46 43 42 41 40 40 40 40 39 39 37
48 50 52 54 55 57 59 61 62 64 66 67 69 69 69 70 69 69 69 68 67 67 66 64 61 58 56 54 52 51 49 48 47 45 42 41 41 40 39 39 38 37 36
52 54 55 57 59 61 62 63 64 65 67 68 70 71 72 72 72 71 70 69 68 67 65 62 59 57 54 52 51 50 48 47 46 45 43 41 40 39 38 37 36 35 35
55 57 59 60 62 63 64 66 67 67 67 67 69 70 71 72 72 71 70 69 67 65 62 59 56 54 52 51 49 47 46 45 45 43 41 39 37 37 36 35 35 35 35
58 60 61 62 63 64 65 66 66 67 67 67 67 67 67 67 66 65 64 62 61 59 57 54 52 50 49 48 47 45 43 42 42 41 39 38 36 35 35 34 34 33 33
60 61 62 62 63 63 63 64 64 64 63 62 62 61 60 59 57 55 54 54 52 50 48 46 46 45 45 43 42 41 41 40 39 38 37 36 35 35 34 34 33 33 33
60 60 60 60 60 60 60 59 59 58 58 57 55 54 53 51 48 46 44 43 42 39 38 38 37 38 39 39 38 37 36 35 36 35 34 33 33 33 33 33 32 32 32
57 57 57 57 56 56 56 55 55 54 53 51 49 47 45 43 40 37 36 34 32 31 29 29 30 30 31 31 30 31 31 32 32 32 31 32 32 32 32 32 32 31 31
54 54 54 54 54 53 52 52 51 50 47 45 43 40 37 35 32 29 26 24 23 22 21 22 24 25 25 25 26 27 28 29 29 29 30 30 30 31 31 31 31 30 30
51 51 51 50 50 49 48 47 47 45 43 40 37 33 30 28 24 20 19 18 18 18 18 19 20 21 22 22 23 24 25 26 27 28 28 29 29 29 29 30 29 29 29
48 48 47 47 47 46 45 44 41 39 36 33 29 26 23 20 16 14 14 15 15 15 15 16 17 18 19 20 20 21 22 23 25 26 26 27 27 27 28 28 29 29 29
45 45 45 45 44 43 40 37 34 31 29 25 21 18 14 11 10 10 10 10 11 12 13 14 15 16 18 19 20 21 22 23 24 24 24 25 25 25 26 26 27 28 28

GEFSGL_500_meanwind_066.txt.gz
Wind_Speed
13 14 15 16 16 17 17 18 19 19 20 20 21 22 22 22 22 22 23 23 23 23 23 23 23 23 24 24 24 25 25 26 26 27 27 27 27 26 27 28 29 30 31
16 16 17 18 19 20 21 21 22 23 24 25 25 25 26 26 26 25 25 25 26 26 26 25 25 25 25 25 26 26 26 27 28 28 29 28 28 28 27 28 28 29 31
17 18 19 21 22 22 23 24 25 26 27 28 28 28 28 28 28 28 28 28 28 28 28 28 28 27 28 28 28 28 28 29 29 29 30 30 30 31 30 30 30 30 31
19 20 22 23 24 25 26 27 28 28 29 30 31 31 31 30 30 30 30 30 30 30 30 30 30 30 30 31 31 31 31 31 31 31 31 32 32 33 33 33 33 33 33
21 22 24 25 26 27 28 29 29 30 31 32 32 33 33 32 32 32 33 33 32 32 32 32 33 33 33 34 34 34 34 33 33 33 33 33 34 35 35 34 34 34 34
23 24 25 26 27 28 29 30 31 32 33 34 34 34 35 35 35 35 36 35 35 35 35 35 36 36 37 37 37 38 37 37 36 36 36 36 36 37 36 36 36 36 36
25 26 27 27 29 30 31 32 34 35 36 36 37 38 38 38 39 39 40 40 39 39 39 39 40 40 40 41 41 41 41 40 40 40 39 39 39 39 39 38 38 38 38
28 29 30 30 31 32 34 35 36 38 39 39 40 41 42 42 43 44 44 45 44 44 44 44 44 44 44 44 45 44 44 43 43 43 42 42 42 42 41 41 40 40 40
32 32 33 34 35 37 38 39 41 41 42 43 43 45 45 45 47 47 48 49 49 48 48 48 48 48 48 48 49 48 47 46 46 46 46 45 45 44 44 43 43 43 42
35 35 36 37 38 40 41 43 44 45 46 47 48 48 49 50 51 51 52 53 53 53 53 53 52 52 52 52 52 51 51 50 50 50 49 48 47 47 46 46 46 45 44
37 38 39 40 42 43 44 45 46 48 49 50 51 52 53 54 55 55 56 57 58 57 57 57 57 56 56 56 56 56 55 54 54 53 52 51 50 49 48 48 48 48 46
37 39 41 42 44 45 46 48 49 50 51 53 54 55 56 57 58 59 60 61 62 62 62 62 62 62 61 61 61 60 59 59 58 57 56 55 54 52 51 50 50 49 48
38 40 42 44 45 46 48 49 51 52 54 55 57 58 60 61 63 64 64 65 66 67 67 67 67 67 67 66 65 64 64 63 62 60 59 58 57 55 54 53 52 51 50
39 41 43 44 46 48 49 51 53 55 57 59 60 62 63 65 66 67 68 69 70 71 71 71 71 71 71 70 69 68 67 66 65 64 62 60 59 57 56 54 53 52 50
41 43 44 46 48 50 52 55 57 59 61 62 64 65 67 68 69 70 71 72 72 73 73 73 72 72 72 71 71 70 69 68 66 65 63 61 59 57 55 54 53 52 51
43 45 47 49 52 54 56 58 60 62 64 65 67 68 70 71 72 72 72 73 73 73 73 72 72 72 71 71 70 69 68 67 65 63 62 60 58 56 54 53 52 51 50
47 49 51 53 56 58 60 62 64 65 66 68 69 70 70 71 71 72 71 71 71 71 71 70 70 69 67 67 66 65 64 62 61 60 59 57 56 55 54 53 52 51 49
51 53 55 58 60 62 64 66 67 67 68 68 68 68 68 67 66 66 67 66 65 65 65 65 64 62 60 59 58 57 57 56 55 54 54 54 54 53 52 51 50 49 48
55 58 60 61 63 65 66 66 66 66 66 65 64 64 63 62 61 61 60 60 58 57 57 55 54 52 51 50 49 48 48 48 48 48 48 48 48 48 48 47 47 47 46
59 60 61 63 63 64 63 63 62 62 62 61 59 58 57 56 55 54 53 52 51 49 48 45 44 42 42 41 41 40 39 40 40 42 43 43 44 44 44 44 43 42 41
60 61 61 60 59 59 58 58 58 57 56 54 53 52 51 49 48 47 45 44 42 41 38 36 34 34 34 34 34 34 34 35 35 36 38 39 39 38 38 38 38 38 38
58 57 56 55 55 54 54 53 52 51 49 48 46 45 44 42 40 38 35 34 33 31 29 28 26 25 24 23 23 23 24 25 27 28 30 31 32 33 34 34 34 34 34
53 52 51 50 50 49 48 47 46 44 42 41 39 36 34 33 31 28 26 25 24 23 21 20 18 18 18 17 17 17 18 18 19 21 23 24 25 27 28 29 30 31 31
47 46 45 45 45 44 43 41 40 38 36 33 31 29 27 25 23 22 21 19 18 16 15 15 14 15 15 14 14 14 15 16 16 17 19 20 22 24 25 26 27 27 29
41 40 41 41 40 39 38 36 35 32 29 26 24 22 20 19 18 17 15 15 14 13 12 12 11 11 11 11 11 12 12 13 14 15 17 17 18 20 22 23 24 25 27
38 38 38 37 35 33 31 30 27 24 21 19 17 16 15 14 13 13 13 13 12 11 11 11 10 10 10 10 10 10 10 11 11 13 15 16 18 19 21 23 24 26 27

GEFSGL_500_meanwind_072.txt.gz
Wind_Speed
11 11 12 13 14 15 16 16 17 17 18 18 19 19 20 20 21 22 22 23 24 25 25 26 27 27 27 28 28 28 28 28 28 28 27 26 25 26 26 25 26 26 26
12 13 14 15 16 17 18 18 19 20 21 21 22 22 22 23 23 24 25 25 26 27 28 28 29 29 30 30 30 30 30 30 30 30 30 30 29 28 28 28 28 28 28
14 15 16 17 18 19 19 20 21 22 23 24 24 25 25 25 26 27 28 28 29 29 30 30 30 31 31 32 32 32 33 33 33 32 32 33 32 32 31 31 31 31 31
18 18 18 19 20 20 21 22 23 24 25 26 26 27 27 28 29 29 30 30 31 31 32 32 32 33 34 34 34 35 36 36 36 35 35 35 35 34 34 33 33 33 33
20 21 21 22 22 22 24 25 26 26 27 28 28 29 29 30 30 31 32 33 33 33 34 34 35 36 37 37 38 38 38 39 39 39 39 39 39 38 38 37 37 36 36
23 23 24 24 25 26 27 28 29 28 29 30 30 32 32 32 32 33 34 35 36 36 37 38 39 39 40 40 41 41 42 42 43 43 43 42 42 42 42 41 41 40 39
28 28 28 28 29 30 30 31 31 31 31 32 34 34 34 34 35 36 38 39 39 39 40 41 42 43 44 44 44 44 45 46 46 47 47 46 46 45 45 44 43 43 41
32 32 32 32 33 34 34 35 34 34 34 35 35 36 37 37 38 39 41 42 43 43 44 45 46 46 47 48 48 47 47 48 49 50 50 49 49 49 49 48 47 46 44
35 36 37 36 37 37 38 38 39 39 38 38 39 40 41 41 42 42 43 44 46 47 48 49 49 50 51 52 53 52 52 52 52 53 53 53 52 52 52 52 50 49 47
37 38 38 38 38 39 39 39 40 40 40 40 42 43 43 43 44 45 47 48 49 50 51 52 54 55 56 56 57 57 57 57 57 58 57 56 55 55 54 54 54 53 52
37 38 38 38 38 37 36 38 39 40 41 42 43 44 45 46 47 49 50 52 53 54 56 57 59 60 61 62 62 63 63 63 64 64 63 62 61 60 59 58 57 57 56
36 36 36 36 36 36 37 37 38 40 41 43 44 46 47 49 51 53 54 56 58 60 61 63 64 65 66 67 67 68 68 69 69 69 68 67 66 65 64 63 62 61 59
33 33 33 34 35 36 36 37 39 41 43 45 47 49 51 54 56 57 59 61 63 65 66 68 69 70 71 71 71 72 73 73 73 73 72 71 70 69 68 67 66 64 63
33 33 34 35 36 37 39 41 43 45 47 49 51 53 55 58 60 62 64 66 68 69 71 71 72 73 74 74 74 73 73 73 73 73 72 71 71 70 69 68 67 66 65
34 35 36 37 38 40 42 44 46 48 50 53 55 58 60 62 64 67 69 70 72 73 73 73 73 72 72 71 71 71 71 70 70 70 69 69 69 69 68 66 66 66 64
36 37 39 41 43 44 46 48 50 53 55 57 59 62 64 66 68 69 69 70 70 70 70 69 69 68 67 66 65 65 64 64 64 64 64 63 63 62 62 62 62 62 61
39 40 42 44 46 48 51 53 55 57 60 62 64 65 67 67 67 67 66 65 65 65 64 63 62 61 60 59 58 57 57 56 57 56 56 55 55 55 55 56 57 57 56
40 43 45 47 49 52 54 57 59 61 62 64 65 65 66 65 64 63 62 61 59 57 56 54 53 52 51 50 50 50 49 48 48 47 48 48 48 48 48 49 50 52 52
44 46 48 50 53 55 57 58 60 61 61 61 61 61 60 59 58 57 56 54 51 49 47 46 45 44 43 42 42 41 41 40 40 40 41 41 42 43 44 44 44 45 46
48 50 51 53 54 56 57 58 58 58 58 57 56 55 53 52 51 49 47 45 42 40 39 37 36 35 35 34 33 33 33 32 33 33 33 34 35 35 36 37 38 39 40
50 52 53 54 55 55 56 55 55 54 52 50 49 48 47 45 43 41 38 36 34 32 31 30 29 29 28 28 27 27 26 26 26 26 26 27 27 29 30 30 32 33 35
51 52 52 52 53 52 52 51 49 47 45 44 43 41 41 39 36 34 31 29 28 27 26 26 25 26 26 25 24 23 22 22 22 22 22 21 22 22 23 24 26 28 29
50 50 50 49 48 48 46 45 43 41 40 39 37 36 35 32 30 28 26 25 24 24 23 24 24 23 23 22 21 21 21 20 19 19 19 18 18 18 18 19 20 22 23
49 47 46 45 44 43 42 40 39 37 36 34 33 31 29 27 25 24 22 21 21 21 21 21 21 21 20 19 19 19 18 17 17 16 15 15 14 14 15 15 15 16 18
44 43 42 41 40 39 38 36 34 33 31 29 28 26 25 23 22 21 20 19 19 19 19 19 19 20 19 18 17 16 15 15 15 14 14 13 12 11 11 12 12 14 16
40 39 38 37 37 36 34 32 30 29 27 25 24 23 21 21 20 19 18 18 18 18 18 19 19 19 18 17 16 15 14 14 13 13 13 12 11 10 10 10 11 13 15

GEFSGL_500_meanwind_078.txt.gz
Wind_Speed
12 13 14 14 15 16 17 18 18 19 20 20 20 21 21 21 22 22 23 23 23 24 24 25 24 24 24 24 24 24 24 24 24 23 23 23 23 24 24 24 25 25 25
13 14 14 15 16 17 18 19 19 21 22 22 23 23 24 24 25 25 26 26 26 27 27 28 28 27 27 27 27 27 27 27 27 27 26 26 26 26 26 27 27 27 28
12 13 14 15 16 17 18 20 21 22 23 24 25 26 27 27 28 28 29 29 29 29 29 30 30 30 30 30 30 30 30 30 29 29 29 29 29 30 30 30 30 30 30
12 13 14 15 16 18 19 21 22 24 24 26 26 28 29 30 31 31 31 32 32 32 32 31 31 32 32 33 33 33 33 33 33 32 33 33 33 34 34 34 34 35 35
13 14 16 17 18 19 21 23 24 26 26 27 28 29 30 32 33 33 33 33 34 34 34 34 34 35 35 35 36 36 36 36 36 37 37 37 37 38 39 40 39 39 38
15 16 18 18 18 19 22 23 25 27 29 29 30 31 32 34 34 35 35 35 36 37 37 37 38 38 38 38 38 38 39 39 40 41 41 41 41 42 43 44 43 43 42
18 19 20 21 21 22 23 25 27 28 30 31 31 33 33 34 35 35 36 37 38 38 39 40 40 40 41 41 41 42 42 43 44 45 45 45 46 46 47 47 47 47 46
21 22 23 23 23 25 27 28 30 31 32 34 35 36 36 36 37 36 37 38 39 40 41 42 42 43 43 44 44 45 46 47 48 49 49 49 50 50 51 52 52 52 51
22 23 24 25 27 27 29 30 31 32 33 34 35 35 35 37 38 38 39 40 40 41 42 42 43 44 45 46 47 49 49 50 52 53 54 54 55 55 56 57 57 57 56
25 26 27 28 29 30 31 32 33 33 33 35 35 35 35 37 38 39 39 40 41 42 43 44 46 47 49 50 51 52 54 55 56 58 58 59 60 60 61 63 63 63 63
27 28 29 30 31 32 32 32 33 33 34 34 35 35 36 37 39 40 42 43 44 45 46 48 50 52 53 55 57 58 60 61 62 63 64 64 65 66 67 68 69 69 69
29 30 31 32 32 32 32 32 33 34 34 35 36 37 38 39 41 43 44 46 47 49 51 52 54 56 58 60 62 64 65 67 68 69 69 70 71 71 72 72 72 73 73
31 31 32 32 33 33 33 34 35 36 37 37 38 39 41 42 44 46 48 50 52 54 56 58 59 61 63 64 66 68 69 70 71 72 72 73 73 74 74 74 74 74 74
31 32 33 33 34 34 35 36 37 38 39 40 41 43 45 47 49 50 52 54 57 59 60 62 64 65 66 67 68 68 69 69 70 71 71 71 72 72 72 72 72 73 73
32 33 33 34 35 36 37 38 39 40 42 44 45 47 49 51 53 55 56 58 60 62 63 64 65 65 65 65 65 66 66 66 65 65 64 64 64 64 64 65 66 67 68
33 33 34 35 36 38 39 40 42 43 45 47 48 50 52 54 55 57 58 59 60 60 60 60 60 60 60 60 60 59 59 59 59 58 57 56 56 55 55 56 58 59 60
34 35 36 37 38 39 41 43 45 46 48 49 51 53 54 55 56 57 57 57 57 57 56 55 54 54 53 52 52 51 51 50 49 48 48 48 47 47 47 47 48 50 52
35 36 37 38 39 41 43 45 46 48 50 51 53 54 55 56 56 56 55 54 53 52 51 50 48 47 46 45 44 42 40 40 40 40 40 40 40 41 41 41 42 43 44
36 38 39 40 42 44 46 48 49 51 52 53 53 54 54 54 53 51 50 48 47 45 44 43 41 40 39 38 36 35 35 34 34 33 34 34 35 35 35 36 36 37 38
38 39 41 43 45 47 49 50 51 51 52 52 52 51 50 49 47 45 44 42 41 39 38 36 35 35 34 32 31 31 30 30 30 31 31 31 31 31 31 31 32 32 33
41 43 45 46 48 49 50 50 50 50 49 49 49 47 46 44 42 40 38 37 35 34 33 32 31 30 29 27 27 27 27 28 28 28 27 27 27 27 27 27 28 28 28
44 46 47 48 48 48 48 48 47 46 46 45 44 42 40 38 36 34 33 32 31 30 29 27 27 27 26 25 25 25 25 25 25 24 24 24 24 24 24 24 24 23 23
45 46 47 46 46 46 45 44 43 43 42 41 39 37 35 32 31 30 28 27 26 26 25 25 24 24 23 23 23 23 22 22 22 22 22 22 22 23 22 21 20 19 19
45 45 44 44 44 43 42 41 40 39 37 35 34 32 30 28 27 25 24 24 23 23 22 21 21 21 21 21 21 22 22 21 21 21 21 21 21 20 20 19 18 18 17
42 42 42 41 40 39 38 36 35 33 32 30 29 27 25 24 23 22 21 21 20 20 20 20 19 19 20 20 21 21 21 21 20 20 20 20 20 19 18 17 17 16 16
39 39 37 36 35 34 32 31 30 29 27 26 24 23 22 21 20 19 19 19 18 19 19 19 19 20 20 20 20 20 20 20 20 20 20 19 19 18 17 17 16 16 15